Theta_e
340 349 354 355 353 353 352 352 351 352 351 350 350 349 349 349 350 349 347 345 344 343 342 342 341 342 343 343 343 344 344 345 345 347 348 348 347 347 347 347 348 346 350
342 349 351 355 354 353 352 351 351 353 351 351 350 350 350 350 350 348 346 346 343 342 341 340 339 337 337 338 339 341 343 343 344 345 346 348 346 345 344 344 346 344 346
342 349 351 352 354 354 353 352 352 352 350 350 349 349 348 347 350 348 346 346 344 343 340 338 336 334 333 334 335 339 342 342 342 343 345 343 342 344 343 343 343 343 343
340 347 350 349 352 353 352 352 351 351 350 349 347 346 346 350 348 347 344 343 344 343 341 337 335 332 330 331 333 336 339 340 340 342 339 342 341 343 343 342 341 340 341
340 346 349 348 351 351 351 351 351 350 349 347 346 346 347 348 348 346 343 341 339 338 338 337 334 329 327 327 328 335 336 337 338 338 337 340 341 342 342 342 341 339 340
340 346 347 349 351 351 351 350 349 349 348 347 346 346 345 348 347 345 342 339 337 335 335 334 332 328 325 326 328 330 332 333 333 335 335 336 337 339 339 339 340 340 340
339 344 349 348 350 350 350 350 349 348 348 348 347 347 346 345 346 343 341 338 337 335 334 333 330 326 323 324 325 326 326 326 328 330 331 332 331 333 334 335 337 337 338
340 343 346 342 343 347 349 348 348 349 347 346 347 347 345 345 345 341 339 338 337 336 334 332 329 325 320 321 323 323 322 323 319 320 323 326 330 330 330 331 332 334 334
336 342 343 344 344 336 339 344 345 346 347 346 346 344 344 344 344 341 341 338 336 335 334 331 328 325 320 318 317 315 316 319 318 319 319 323 326 327 327 327 327 328 329
320 324 328 339 340 345 346 336 337 342 344 344 343 342 340 339 339 336 334 337 336 335 333 330 327 324 319 313 313 311 313 316 313 314 316 316 323 325 325 325 324 325 326
313 314 316 320 332 339 342 339 334 336 338 338 339 335 334 343 342 334 331 335 337 335 333 330 328 323 317 310 308 309 312 309 309 311 311 315 318 323 326 324 324 324 325
310 312 313 315 317 327 336 340 343 344 345 345 344 343 342 342 341 338 329 329 332 332 333 330 325 321 321 322 313 312 308 308 309 309 308 311 315 320 323 325 325 325 326
309 311 313 315 315 317 331 340 342 344 344 343 343 342 340 340 339 338 334 332 334 326 330 330 325 326 326 323 318 313 309 309 308 309 307 309 312 317 321 323 326 325 325
309 311 314 317 319 318 323 337 340 340 341 341 339 340 339 339 338 338 335 335 333 331 332 330 327 324 323 321 318 316 312 310 308 308 308 307 309 313 317 321 324 327 325
308 312 315 318 321 320 321 337 336 331 329 329 330 332 335 335 335 335 336 333 332 332 330 329 325 322 321 320 320 316 313 311 309 308 309 306 305 308 313 316 322 327 328
309 312 311 314 321 323 321 320 321 321 320 321 320 322 325 328 327 326 325 324 323 323 322 323 320 319 315 314 316 315 313 313 311 311 309 310 306 305 307 310 315 320 325
310 308 308 310 314 313 311 311 312 314 314 314 315 317 318 320 320 320 318 318 318 318 317 317 315 313 313 312 312 310 310 312 313 312 311 310 310 308 305 308 311 313 317
310 305 306 307 307 306 305 305 306 308 310 311 312 313 315 314 315 316 314 314 314 313 313 313 311 312 312 310 309 310 311 312 310 311 311 310 310 308 310 306 307 309 310
307 305 304 305 304 303 302 301 301 302 304 307 308 309 309 312 314 314 313 313 314 314 313 314 314 313 311 310 309 311 313 311 307 307 310 310 308 307 306 308 305 305 306
307 304 304 304 302 301 301 300 300 300 302 303 303 303 305 305 307 307 307 308 309 307 307 308 311 312 308 306 306 309 312 311 307 308 307 305 306 305 305 305 306 305 306
306 306 304 305 304 304 304 304 303 300 299 297 298 299 299 299 301 302 301 302 303 301 301 303 305 306 305 304 306 305 310 308 306 306 308 307 305 305 306 304 304 303 304
303 304 305 306 307 307 305 302 299 297 296 295 295 294 295 295 295 295 296 295 296 295 295 296 297 301 301 302 297 303 302 304 302 304 306 304 304 304 303 304 304 304 304
299 301 301 302 301 300 299 298 296 296 296 293 292 291 292 292 292 294 293 293 293 293 291 292 293 292 292 295 295 296 294 294 294 302 302 300 301 297 297 299 301 301 301
295 296 298 297 298 298 299 298 297 295 291 291 290 290 290 291 290 291 292 291 292 291 291 291 291 291 291 289 292 291 293 292 290 289 293 293 292 292 293 296 293 294 299
293 294 294 294 294 295 295 296 294 291 291 290 290 289 289 289 290 290 290 290 290 290 290 289 289 289 289 288 288 288 289 288 290 285 283 285 289 290 292 291 292 296 295
291 292 292 291 291 292 293 293 292 291 290 289 289 288 288 288 288 288 288 289 288 287 288 288 289 288 288 287 287 287 286 284 284 283 282 283 284 286 288 289 293 293 295
Wind_Speed
5 14 9 12 12 11 10 11 11 11 12 12 11 11 11 10 11 13 14 15 14 14 15 14 14 14 13 13 14 14 13 12 12 12 13 16 16 16 16 15 12 14 17
10 14 8 12 13 12 11 10 10 9 10 10 10 9 9 9 11 14 14 13 14 14 14 14 14 13 13 12 12 12 12 11 10 8 5 14 13 13 13 13 13 13 15
10 13 11 10 13 12 12 10 9 9 10 10 9 9 9 7 11 14 13 12 12 14 13 14 14 14 13 12 11 11 11 10 9 7 11 9 11 12 12 12 12 13 14
7 10 12 8 12 13 13 9 8 9 10 9 9 8 8 9 11 12 12 12 13 14 14 13 13 13 13 12 11 10 10 9 8 10 4 9 8 12 12 11 11 11 10
8 8 10 7 9 11 12 11 9 8 9 9 8 8 7 9 10 11 11 12 13 13 12 12 13 13 13 12 10 10 10 9 8 8 7 8 6 11 12 13 11 9 10
6 7 12 7 6 10 10 11 8 8 8 8 8 8 7 8 7 8 10 12 12 12 12 13 13 14 13 13 12 11 10 10 13 6 6 5 10 9 10 10 10 9 9
6 5 9 5 4 7 10 11 10 7 7 7 7 7 8 7 8 9 11 12 12 12 12 13 13 14 14 14 13 12 11 11 8 6 5 7 10 10 10 9 8 8 9
7 4 7 6 4 4 6 8 10 10 7 6 7 7 6 5 8 8 10 11 11 11 12 12 12 13 13 13 13 13 12 11 4 6 6 7 12 10 11 11 10 9 8
7 5 3 3 8 5 5 4 5 9 8 6 3 4 5 5 8 8 8 9 10 11 11 11 11 11 11 11 11 11 10 11 6 5 5 8 12 10 10 10 10 10 9
7 5 4 1 4 6 9 7 1 3 6 5 5 5 7 7 9 8 8 8 8 9 11 10 9 8 8 8 9 8 7 9 7 5 5 7 12 11 10 9 9 9 9
5 6 6 5 3 3 6 1 4 3 5 5 6 6 6 6 8 8 7 9 9 8 6 6 8 7 5 6 6 4 7 4 5 4 5 11 12 11 11 10 9 10 9
6 5 6 6 5 4 4 6 6 6 6 6 7 7 6 3 5 4 6 7 8 7 6 6 6 2 2 5 4 2 4 4 3 3 5 10 11 11 11 11 9 8 7
7 6 7 6 5 4 4 1 1 1 3 1 1 2 3 3 4 3 3 2 3 3 2 3 2 3 5 4 4 4 5 4 4 3 6 8 9 10 11 11 11 7 7
7 8 8 8 5 2 4 2 1 3 3 4 7 8 2 2 3 2 1 3 2 2 1 1 1 3 5 4 5 4 3 2 2 3 4 7 10 11 11 10 10 11 7
7 8 9 9 6 0 4 4 5 7 7 7 8 9 7 6 5 5 5 3 2 3 3 4 3 2 3 4 3 4 4 4 4 2 2 6 2 6 10 12 12 11 10
8 9 9 9 9 10 10 11 8 7 7 8 9 10 10 6 6 5 5 5 5 4 4 4 3 3 3 3 4 3 3 2 2 2 3 2 3 1 3 5 8 10 12
6 8 8 8 10 11 12 10 8 8 8 8 8 11 11 10 9 8 7 6 6 5 4 3 3 2 2 2 2 3 3 5 5 4 3 3 1 5 0 5 7 7 8
7 8 8 8 10 12 11 9 8 8 9 8 8 9 11 11 10 8 7 6 5 6 5 4 4 3 3 4 3 3 3 3 5 5 4 3 4 5 2 4 8 11 11
7 7 8 9 10 11 11 10 10 10 8 9 9 9 11 12 10 7 7 6 7 7 8 7 6 6 6 6 6 5 4 3 3 4 5 4 5 5 4 6 5 7 8
7 8 7 8 10 10 8 8 8 8 9 9 9 9 11 10 11 9 9 9 8 8 8 7 7 6 7 8 8 5 4 2 3 3 4 4 4 5 6 6 5 5 7
8 9 8 8 8 6 6 7 8 9 9 9 9 12 13 11 12 11 8 8 8 9 9 9 7 7 7 10 6 6 5 5 4 3 3 6 6 6 7 6 5 5 5
8 7 7 8 7 6 6 7 6 8 9 9 9 11 13 13 12 12 10 9 10 8 11 10 10 7 7 9 6 6 4 3 8 6 5 5 9 8 10 11 10 8 7
8 7 7 8 8 8 10 8 8 8 8 8 8 8 10 13 13 11 11 9 9 8 8 9 9 11 6 7 11 6 5 5 9 5 4 7 8 8 9 10 9 10 10
7 7 8 8 8 7 8 8 9 8 9 8 9 8 9 12 12 11 11 10 9 7 9 8 8 8 8 7 3 7 6 6 4 6 6 9 9 8 8 7 10 11 9
8 7 7 8 8 7 7 8 7 11 8 7 8 11 11 10 11 11 10 9 9 7 7 8 8 8 6 5 4 4 4 6 5 5 9 10 7 7 8 7 8 7 10
7 8 7 8 8 8 7 8 10 11 11 9 8 7 7 7 7 9 9 8 8 7 7 7 7 8 7 6 5 5 5 4 7 6 8 10 12 9 9 10 5 7 6
Wind_Direction
165 130 149 152 144 134 121 117 113 110 109 107 104 102 102 100 95 87 79 76 66 60 58 56 55 47 46 36 33 39 43 44 45 46 64 60 51 51 49 35 36 46 44
144 141 163 154 142 141 126 118 115 111 110 105 108 113 112 100 103 91 86 79 70 59 60 56 53 49 43 41 37 32 35 40 35 13 52 90 61 54 53 48 41 45 44
154 144 164 150 145 140 131 132 127 122 117 112 106 100 93 96 105 92 83 71 74 72 58 51 49 45 40 39 40 39 33 32 21 343 312 75 69 51 50 49 44 45 44
162 154 164 167 153 144 135 132 133 132 129 125 120 111 105 100 107 98 88 80 68 71 62 50 46 44 40 36 35 40 37 29 356 317 26 81 68 53 42 40 44 42 46
140 162 128 154 156 145 137 140 145 142 139 134 129 120 111 115 123 111 98 84 72 60 54 50 43 40 38 35 37 37 30 12 335 315 42 39 58 39 40 30 35 54 46
124 161 121 149 182 146 145 142 158 155 151 144 136 133 126 122 121 116 98 86 78 66 57 52 44 38 36 35 37 36 28 0 316 35 22 64 55 23 24 29 32 41 43
100 155 137 155 212 176 167 163 165 170 165 155 150 149 144 141 128 104 102 89 82 68 63 53 45 41 39 37 35 32 21 356 353 29 26 21 35 14 16 18 23 30 27
86 100 128 155 299 303 216 187 173 168 182 179 183 167 142 133 121 106 103 97 98 83 76 63 52 47 42 41 37 29 18 356 351 37 29 54 10 21 18 13 11 12 14
49 70 84 180 189 246 291 275 216 178 180 190 181 149 158 131 111 98 95 96 98 94 87 75 63 53 47 46 41 30 11 343 12 30 17 43 4 10 17 12 11 5 3
64 53 37 75 346 238 214 207 200 223 175 181 174 174 165 157 142 135 129 105 106 108 114 103 91 72 59 58 47 28 344 296 28 20 47 25 5 2 2 7 4 359 2
46 29 14 359 310 266 245 106 186 186 202 201 205 208 184 207 172 162 103 118 115 119 121 119 110 98 110 102 71 19 314 30 10 22 44 16 8 2 359 358 356 354 357
22 20 9 354 341 313 273 250 259 218 216 211 220 180 214 208 130 128 122 126 118 133 138 123 101 125 251 27 39 312 25 11 26 21 67 22 9 4 359 354 350 354 358
2 14 6 352 331 287 213 258 1 294 276 290 272 160 121 95 131 145 138 114 125 149 127 145 130 348 37 25 44 31 6 347 0 13 70 31 8 3 1 355 346 342 339
5 8 4 353 334 291 271 147 111 32 330 46 49 23 40 129 150 156 118 161 131 194 155 126 63 35 10 23 20 20 42 19 11 351 61 43 2 354 354 355 351 336 330
10 10 18 9 339 52 208 99 76 60 58 54 50 40 32 36 35 37 38 57 31 27 25 33 52 43 14 5 31 8 1 355 346 341 326 128 73 354 348 347 349 346 338
13 23 16 11 2 68 66 69 65 65 61 52 43 32 26 38 35 41 42 35 30 27 25 27 22 11 44 357 338 1 328 294 295 307 319 306 178 310 359 352 348 345 340
31 40 29 35 42 57 60 65 71 77 72 66 61 45 39 39 36 40 40 33 29 25 27 33 29 39 24 335 336 318 313 299 301 304 298 299 291 193 1 351 351 344 338
54 46 50 65 72 73 72 66 66 65 68 62 62 50 55 56 50 55 55 43 38 33 22 32 16 15 4 347 321 299 271 297 317 305 303 327 344 347 326 39 353 338 326
72 75 75 77 82 87 80 80 76 72 70 76 72 71 63 58 60 62 62 48 42 40 34 22 29 10 14 356 331 309 287 300 304 326 320 339 350 344 345 355 346 311 329
99 101 98 106 111 112 105 97 87 80 72 65 65 65 63 58 57 62 56 47 39 40 36 22 19 25 16 356 321 290 283 313 349 345 351 10 27 20 12 357 342 346 341
120 121 118 114 127 121 112 107 88 85 83 74 66 60 57 55 58 61 61 51 55 45 40 32 10 26 26 354 351 348 290 83 57 38 32 16 26 6 1 8 359 347 334
124 119 113 119 122 108 106 100 104 107 96 93 83 67 65 63 55 62 57 50 48 54 42 33 28 25 33 23 356 304 357 169 27 319 36 33 13 9 359 349 341 341 332
124 121 119 111 109 106 111 111 107 111 104 95 80 72 66 66 65 61 64 61 53 49 49 39 32 33 36 22 35 18 345 357 336 32 24 10 12 358 346 341 341 342 334
115 108 113 110 110 117 138 137 129 107 106 97 94 89 73 66 65 64 65 64 60 50 45 39 32 35 23 34 26 17 11 329 332 321 355 315 359 339 337 318 343 319 322
129 122 118 114 109 113 107 112 113 111 111 110 106 100 90 77 69 63 59 57 55 49 48 44 39 32 33 30 23 2 349 325 344 316 308 324 321 330 314 332 313 311 328
137 128 122 120 114 115 116 117 119 123 125 123 118 105 99 91 79 70 69 60 54 50 41 38 31 36 22 25 14 10 0 357 334 322 311 312 313 318 332 302 298 301 315